| time (UTC) | temp C | wind direction | speed KPH | gust KPH | rain 1hr cm | rain 24hr cm | rain mn cm | humidity % | barometer mb |
| 20260905204652 | 37 | 102 | 1.6 | 3.2 | 0.00 | 0.00 | 0.00 | 48 | 1010.3 |
| 20260905204148 | 37 | 135 | 0.0 | 1.6 | 0.00 | 0.00 | 0.00 | 45 | 1010.3 |
| 20260905203642 | 39 | 115 | 4.8 | 6.4 | 0.00 | 0.00 | 0.00 | 43 | 1010.3 |
| 20260905203138 | 39 | 84 | 1.6 | 3.2 | 0.00 | 0.00 | 0.00 | 42 | 1010.5 |
| 20260905202633 | 38 | 147 | 1.6 | 1.6 | 0.00 | 0.00 | 0.00 | 44 | 1010.4 |
| 20260905202128 | 37 | 114 | 6.4 | 6.4 | 0.00 | 0.00 | 0.00 | 47 | 1010.4 |
| 20260905201624 | 37 | 118 | 4.8 | 9.7 | 0.00 | 0.00 | 0.00 | 47 | 1010.4 |
| 20260905201123 | 37 | 197 | 8.0 | 11.3 | 0.00 | 0.00 | 0.00 | 48 | 1010.5 |
| 20260905200619 | 37 | 135 | 3.2 | 4.8 | 0.00 | 0.00 | 0.00 | 48 | 1010.7 |
| 20260905200114 | 37 | 130 | 1.6 | 1.6 | 0.00 | 0.00 | 0.00 | 48 | 1010.7 |
| 20260905195607 | 37 | 131 | 6.4 | 6.4 | 0.00 | 0.00 | 0.00 | 49 | 1010.8 |
| 20260905195103 | 37 | 123 | 1.6 | 1.6 | 0.00 | 0.00 | 0.00 | 50 | 1010.8 |
| 20260905194602 | 37 | 162 | 3.2 | 4.8 | 0.00 | 0.00 | 0.00 | 52 | 1011.0 |
| 20260905194101 | 36 | 123 | 0.0 | 0.0 | 0.00 | 0.00 | 0.00 | 52 | 1010.9 |
| 20260905193557 | 37 | 5 | 6.4 | 6.4 | 0.00 | 0.00 | 0.00 | 49 | 1011.3 |
| 20260905193052 | 37 | 5 | 9.7 | 11.3 | 0.00 | 0.00 | 0.00 | 48 | 1011.2 |
| 20260905192548 | 37 | 69 | 1.6 | 3.2 | 0.00 | 0.00 | 0.00 | 49 | 1011.3 |
| 20260905192044 | 37 | 18 | 3.2 | 3.2 | 0.00 | 0.00 | 0.00 | 49 | 1011.3 |
| 20260905191542 | 37 | 258 | 4.8 | 4.8 | 0.00 | 0.00 | 0.00 | 50 | 1011.4 |
| 20260905191041 | 36 | 175 | 3.2 | 3.2 | 0.00 | 0.00 | 0.00 | 52 | 1011.5 |
| 20260905190539 | 36 | 135 | 8.0 | 9.7 | 0.00 | 0.00 | 0.00 | 52 | 1011.8 |
| 20260905190033 | 35 | 115 | 6.4 | 9.7 | 0.00 | 0.00 | 0.00 | 54 | 1011.9 |
| 20260905185533 | 36 | 138 | 11.3 | 12.9 | 0.00 | 0.00 | 0.00 | 52 | 1011.9 |
| 20260905185033 | 36 | 69 | 4.8 | 6.4 | 0.00 | 0.00 | 0.00 | 52 | 1012.0 |
| 20260905184532 | 36 | 134 | 4.8 | 6.4 | 0.00 | 0.00 | 0.00 | 52 | 1012.1 |
| 20260905184026 | 37 | 136 | 6.4 | 9.7 | 0.00 | 0.00 | 0.00 | 51 | 1012.1 |
| 20260905183525 | 36 | 240 | 8.0 | 9.7 | 0.00 | 0.00 | 0.00 | 52 | 1012.1 |
| 20260905183020 | 36 | 149 | 6.4 | 9.7 | 0.00 | 0.00 | 0.00 | 54 | 1012.3 |
| 20260905182515 | 36 | 155 | 4.8 | 4.8 | 0.00 | 0.00 | 0.00 | 53 | 1012.2 |
| 20260905182009 | 35 | 91 | 3.2 | 3.2 | 0.00 | 0.00 | 0.00 | 53 | 1012.2 |
| 20260905181504 | 35 | 105 | 0.0 | 1.6 | 0.00 | 0.00 | 0.00 | 54 | 1012.3 |
| 20260905181003 | 35 | 48 | 3.2 | 6.4 | 0.00 | 0.00 | 0.00 | 54 | 1012.4 |
| 20260905180458 | 35 | 154 | 4.8 | 4.8 | 0.00 | 0.00 | 0.00 | 55 | 1012.5 |
| 20260905175954 | 35 | 14 | 1.6 | 4.8 | 0.00 | 0.00 | 0.00 | 55 | 1012.7 |
| 20260905175453 | 35 | 97 | 6.4 | 6.4 | 0.00 | 0.00 | 0.00 | 57 | 1012.5 |
| 20260905174948 | 35 | 166 | 4.8 | 4.8 | 0.00 | 0.00 | 0.00 | 55 | 1012.7 |
| 20260905174443 | 35 | 150 | 6.4 | 6.4 | 0.00 | 0.00 | 0.00 | 57 | 1012.8 |
| 20260905173939 | 35 | 40 | 4.8 | 4.8 | 0.00 | 0.00 | 0.00 | 55 | 1012.9 |
| 20260905173435 | 35 | 32 | 4.8 | 6.4 | 0.00 | 0.00 | 0.00 | 56 | 1012.8 |
| 20260905172930 | 35 | 37 | 8.0 | 11.3 | 0.00 | 0.00 | 0.00 | 55 | 1012.8 |
| 20260905172428 | 35 | 349 | 12.9 | 16.1 | 0.00 | 0.00 | 0.00 | 55 | 1013.1 |
| 20260905171924 | 35 | 125 | 3.2 | 4.8 | 0.00 | 0.00 | 0.00 | 56 | 1013.0 |
| 20260905171421 | 35 | 105 | 1.6 | 1.6 | 0.00 | 0.00 | 0.00 | 56 | 1012.9 |
| 20260905170916 | 35 | 124 | 0.0 | 0.0 | 0.00 | 0.00 | 0.00 | 56 | 1013.2 |
| 20260905170412 | 35 | 125 | 0.0 | 1.6 | 0.00 | 0.00 | 0.00 | 56 | 1013.1 |
| 20260905165912 | 35 | 62 | 1.6 | 1.6 | 0.00 | 0.00 | 0.00 | 57 | 1013.3 |
| 20260905165407 | 35 | 188 | 0.0 | 1.6 | 0.00 | 0.00 | 0.00 | 57 | 1013.3 |
| 20260905164902 | 34 | 128 | 3.2 | 3.2 | 0.00 | 0.00 | 0.00 | 58 | 1013.3 |
| 20260905164356 | 34 | 120 | 6.4 | 6.4 | 0.00 | 0.00 | 0.00 | 59 | 1013.5 |
| 20260905163852 | 34 | 25 | 3.2 | 4.8 | 0.00 | 0.00 | 0.00 | 58 | 1013.5 |
| 20260905163348 | 35 | 132 | 6.4 | 9.7 | 0.00 | 0.00 | 0.00 | 58 | 1013.7 |
| 20260905162844 | 34 | 127 | 0.0 | 1.6 | 0.00 | 0.00 | 0.00 | 60 | 1013.5 |
| 20260905162343 | 34 | 102 | 3.2 | 3.2 | 0.00 | 0.00 | 0.00 | 59 | 1013.8 |
| 20260905161838 | 33 | 111 | 3.2 | 3.2 | 0.00 | 0.00 | 0.00 | 60 | 1013.7 |
| 20260905161338 | 34 | 259 | 4.8 | 4.8 | 0.00 | 0.00 | 0.00 | 58 | 1013.9 |
| 20260905160836 | 33 | 47 | 3.2 | 4.8 | 0.00 | 0.00 | 0.00 | 60 | 1013.9 |
| 20260905160330 | 33 | 102 | 3.2 | 3.2 | 0.00 | 0.00 | 0.00 | 61 | 1013.8 |
| 20260905155825 | 33 | 48 | 6.4 | 6.4 | 0.00 | 0.00 | 0.00 | 61 | 1013.9 |
| 20260905155324 | 33 | 357 | 4.8 | 6.4 | 0.00 | 0.00 | 0.00 | 61 | 1013.9 |
| 20260905154819 | 33 | 181 | 6.4 | 6.4 | 0.00 | 0.00 | 0.00 | 58 | 1013.9 |
| 20260905154314 | 33 | 103 | 4.8 | 9.7 | 0.00 | 0.00 | 0.00 | 60 | 1013.9 |
| 20260905153809 | 33 | 120 | 1.6 | 1.6 | 0.00 | 0.00 | 0.00 | 62 | 1013.9 |
| 20260905153307 | 33 | 121 | 3.2 | 4.8 | 0.00 | 0.00 | 0.00 | 62 | 1013.9 |
| 20260905152806 | 32 | 42 | 8.0 | 9.7 | 0.00 | 0.00 | 0.00 | 62 | 1014.1 |
| 20260905152306 | 33 | 6 | 6.4 | 9.7 | 0.00 | 0.00 | 0.00 | 60 | 1013.8 |
| 20260905151800 | 34 | 35 | 1.6 | 3.2 | 0.00 | 0.00 | 0.00 | 56 | 1013.7 |
| 20260905151256 | 34 | 47 | 3.2 | 4.8 | 0.00 | 0.00 | 0.00 | 56 | 1013.9 |
| 20260905150755 | 33 | 349 | 6.4 | 6.4 | 0.00 | 0.00 | 0.00 | 57 | 1013.9 |
| 20260905150250 | 33 | 255 | 3.2 | 3.2 | 0.00 | 0.00 | 0.00 | 58 | 1014.0 |
| 20260905145747 | 33 | 24 | 0.0 | 0.0 | 0.00 | 0.00 | 0.00 | 59 | 1013.8 |
| 20260905145242 | 33 | 36 | 1.6 | 3.2 | 0.00 | 0.00 | 0.00 | 60 | 1013.8 |
| 20260905144741 | 33 | 7 | 6.4 | 9.7 | 0.00 | 0.00 | 0.00 | 58 | 1013.9 |
| 20260905144236 | 33 | 13 | 4.8 | 6.4 | 0.00 | 0.00 | 0.00 | 60 | 1013.8 |
| 20260905143736 | 33 | 70 | 0.0 | 1.6 | 0.00 | 0.00 | 0.00 | 64 | 1013.9 |
| 20260905143235 | 32 | 98 | 0.0 | 1.6 | 0.00 | 0.00 | 0.00 | 67 | 1014.0 |
| 20260905142733 | 32 | 90 | 0.0 | 1.6 | 0.00 | 0.00 | 0.00 | 65 | 1013.9 |
| 20260905142228 | 32 | 83 | 0.0 | 1.6 | 0.00 | 0.00 | 0.00 | 67 | 1013.9 |
| 20260905141725 | 31 | 86 | 1.6 | 1.6 | 0.00 | 0.00 | 0.00 | 67 | 1014.1 |
| 20260905141220 | 31 | 117 | 0.0 | 0.0 | 0.00 | 0.00 | 0.00 | 68 | 1014.0 |
| 20260905140715 | 31 | 100 | 0.0 | 1.6 | 0.00 | 0.00 | 0.00 | 72 | 1013.9 |
| 20260905140214 | 31 | 101 | 1.6 | 1.6 | 0.00 | 0.00 | 0.00 | 74 | 1013.8 |
| 20260905135709 | 30 | 153 | 0.0 | 0.0 | 0.00 | 0.00 | 0.00 | 73 | 1013.9 |
| 20260905135205 | 30 | 174 | 4.8 | 4.8 | 0.00 | 0.00 | 0.00 | 77 | 1013.8 |
| 20260905134704 | 28 | 160 | 1.6 | 1.6 | 0.00 | 0.00 | 0.00 | 82 | 1014.1 |
| 20260905134204 | 28 | 153 | 1.6 | 1.6 | 0.00 | 0.00 | 0.00 | 85 | 1014.0 |
| 20260905133659 | 27 | 170 | 1.6 | 3.2 | 0.00 | 0.00 | 0.00 | 86 | 1014.1 |
| 20260905133154 | 27 | 160 | 1.6 | 1.6 | 0.00 | 0.00 | 0.00 | 86 | 1014.2 |
| 20260905132653 | 27 | 240 | 3.2 | 3.2 | 0.00 | 0.00 | 0.00 | 88 | 1014.1 |
| 20260905132148 | 27 | 158 | 1.6 | 1.6 | 0.00 | 0.00 | 0.00 | 91 | 1014.3 |
| 20260905131644 | 26 | 135 | 1.6 | 1.6 | 0.00 | 0.00 | 0.00 | 93 | 1014.3 |
| 20260905131143 | 26 | 143 | 1.6 | 1.6 | 0.00 | 0.00 | 0.00 | 95 | 1014.4 |
| 20260905130638 | 25 | 110 | 1.6 | 1.6 | 0.00 | 0.00 | 0.00 | 97 | 1014.3 |
| 20260905130138 | 25 | 103 | 1.6 | 1.6 | 0.00 | 0.00 | 0.00 | 99 | 1014.2 |
| 20260905125633 | 24 | 143 | 1.6 | 1.6 | 0.00 | 0.00 | 0.00 | 99 | 1014.3 |
| 20260905125128 | 24 | 149 | 1.6 | 1.6 | 0.00 | 0.00 | 0.00 | 99 | 1014.3 |
| 20260905124625 | 23 | 140 | 1.6 | 1.6 | 0.00 | 0.00 | 0.00 | 99 | 1014.3 |
| 20260905124120 | 23 | 178 | 1.6 | 1.6 | 0.00 | 0.00 | 0.00 | 99 | 1014.4 |
| 20260905123609 | 23 | 140 | 1.6 | 1.6 | 0.00 | 0.00 | 0.00 | 99 | 1014.5 |
| 20260905123106 | 23 | 141 | 0.0 | 0.0 | 0.00 | 0.00 | 0.00 | 99 | 1014.6 |
| 20260905122601 | 23 | 133 | 0.0 | 0.0 | 0.00 | 0.00 | 0.00 | 99 | 1014.4 |
| 20260905122100 | 23 | 141 | 0.0 | 0.0 | 0.00 | 0.00 | 0.00 | 99 | 1014.3 |
| 20260905121555 | 23 | 128 | 0.0 | 0.0 | 0.00 | 0.00 | 0.00 | 99 | 1014.4 |
| 20260905121050 | 23 | 103 | 0.0 | 0.0 | 0.00 | 0.00 | 0.00 | 99 | 1014.4 |
| 20260905120549 | 22 | 129 | 0.0 | 0.0 | 0.00 | 0.00 | 0.00 | 99 | 1014.1 |
| 20260905120045 | 22 | 149 | 1.6 | 1.6 | 0.00 | 0.00 | 0.00 | 99 | 1014.2 |
| 20260905115543 | 22 | 154 | 1.6 | 1.6 | 0.00 | 0.00 | 0.00 | 99 | 1013.9 |
| 20260905115038 | 22 | 137 | 0.0 | 1.6 | 0.00 | 0.00 | 0.00 | 99 | 1014.0 |
| 20260905114538 | 22 | 140 | 0.0 | 0.0 | 0.00 | 0.00 | 0.00 | 99 | 1013.9 |
| 20260905114037 | 22 | 134 | 0.0 | 0.0 | 0.00 | 0.00 | 0.00 | 99 | 1013.7 |
| 20260905113532 | 22 | 132 | 0.0 | 0.0 | 0.00 | 0.00 | 0.00 | 99 | 1013.6 |
| 20260905113027 | 22 | 157 | 1.6 | 3.2 | 0.00 | 0.00 | 0.00 | 99 | 1013.5 |
| 20260905112523 | 22 | 138 | 0.0 | 0.0 | 0.00 | 0.00 | 0.00 | 99 | 1013.6 |
| 20260905112019 | 22 | 134 | 0.0 | 0.0 | 0.00 | 0.00 | 0.00 | 99 | 1013.5 |
| 20260905111519 | 22 | 134 | 0.0 | 0.0 | 0.00 | 0.00 | 0.00 | 99 | 1013.6 |
| 20260905111018 | 22 | 148 | 1.6 | 1.6 | 0.00 | 0.00 | 0.00 | 99 | 1013.3 |
| 20260905110517 | 22 | 140 | 0.0 | 0.0 | 0.00 | 0.00 | 0.00 | 99 | 1013.3 |
| 20260905110013 | 22 | 145 | 0.0 | 0.0 | 0.00 | 0.00 | 0.00 | 99 | 1013.0 |
| 20260905105507 | 23 | 127 | 0.0 | 0.0 | 0.00 | 0.00 | 0.00 | 99 | 1013.2 |
| 20260905105006 | 23 | 127 | 0.0 | 0.0 | 0.00 | 0.00 | 0.00 | 99 | 1013.0 |
| 20260905104502 | 23 | 120 | 0.0 | 0.0 | 0.00 | 0.00 | 0.00 | 99 | 1013.1 |
| 20260905103956 | 23 | 120 | 0.0 | 0.0 | 0.00 | 0.00 | 0.00 | 99 | 1013.0 |
| 20260905103451 | 23 | 120 | 0.0 | 0.0 | 0.00 | 0.00 | 0.00 | 99 | 1013.0 |
| 20260905102948 | 23 | 121 | 0.0 | 0.0 | 0.00 | 0.00 | 0.00 | 99 | 1012.9 |
| 20260905102444 | 23 | 121 | 0.0 | 0.0 | 0.00 | 0.00 | 0.00 | 99 | 1013.0 |
| 20260905101939 | 23 | 121 | 0.0 | 0.0 | 0.00 | 0.00 | 0.00 | 99 | 1013.0 |
| 20260905101437 | 23 | 128 | 0.0 | 0.0 | 0.00 | 0.00 | 0.00 | 99 | 1013.1 |
| 20260905100926 | 23 | 122 | 0.0 | 0.0 | 0.00 | 0.00 | 0.00 | 99 | 1013.0 |
| 20260905100417 | 23 | 118 | 0.0 | 0.0 | 0.00 | 0.00 | 0.00 | 99 | 1013.0 |
| 20260905095915 | 23 | 92 | 0.0 | 1.6 | 0.00 | 0.00 | 0.00 | 99 | 1012.8 |
| 20260905095410 | 23 | 99 | 1.6 | 1.6 | 0.00 | 0.00 | 0.00 | 99 | 1012.9 |
| 20260905094904 | 23 | 126 | 0.0 | 0.0 | 0.00 | 0.00 | 0.00 | 99 | 1012.8 |
| 20260905094400 | 23 | 128 | 0.0 | 0.0 | 0.00 | 0.00 | 0.00 | 99 | 1012.7 |
| 20260905093859 | 23 | 129 | 0.0 | 0.0 | 0.00 | 0.00 | 0.00 | 99 | 1013.0 |
| 20260905093354 | 23 | 129 | 0.0 | 0.0 | 0.00 | 0.00 | 0.00 | 99 | 1012.8 |
| 20260905092850 | 23 | 129 | 0.0 | 0.0 | 0.00 | 0.00 | 0.00 | 99 | 1012.8 |
| 20260905092350 | 23 | 143 | 0.0 | 1.6 | 0.00 | 0.00 | 0.00 | 99 | 1012.6 |
| 20260905091845 | 23 | 136 | 0.0 | 1.6 | 0.00 | 0.00 | 0.00 | 99 | 1012.7 |
| 20260905091339 | 23 | 137 | 0.0 | 1.6 | 0.00 | 0.00 | 0.00 | 99 | 1012.7 |
| 20260905090839 | 23 | 156 | 1.6 | 1.6 | 0.00 | 0.00 | 0.00 | 99 | 1012.8 |
| 20260905090335 | 23 | 128 | 0.0 | 0.0 | 0.00 | 0.00 | 0.00 | 99 | 1012.6 |
| 20260905085834 | 23 | 129 | 0.0 | 0.0 | 0.00 | 0.00 | 0.00 | 99 | 1012.6 |
| 20260905085333 | 23 | 129 | 1.6 | 1.6 | 0.00 | 0.00 | 0.00 | 99 | 1012.6 |
| 20260905084824 | 23 | 128 | 0.0 | 0.0 | 0.00 | 0.00 | 0.00 | 99 | 1012.6 |
| 20260905084323 | 23 | 163 | 1.6 | 1.6 | 0.00 | 0.00 | 0.00 | 99 | 1012.7 |
| 20260905083818 | 23 | 143 | 0.0 | 0.0 | 0.00 | 0.00 | 0.00 | 99 | 1012.7 |
| 20260905083314 | 23 | 117 | 0.0 | 0.0 | 0.00 | 0.00 | 0.00 | 99 | 1012.6 |
| 20260905082809 | 23 | 103 | 0.0 | 0.0 | 0.00 | 0.00 | 0.00 | 99 | 1012.6 |
| 20260905082307 | 23 | 114 | 0.0 | 0.0 | 0.00 | 0.00 | 0.00 | 99 | 1012.6 |
| 20260905081805 | 23 | 129 | 0.0 | 0.0 | 0.00 | 0.00 | 0.00 | 99 | 1012.7 |
| 20260905081301 | 23 | 129 | 0.0 | 0.0 | 0.00 | 0.00 | 0.00 | 99 | 1012.7 |
| 20260905080759 | 23 | 129 | 0.0 | 0.0 | 0.00 | 0.00 | 0.00 | 99 | 1012.7 |
| 20260905080254 | 23 | 129 | 0.0 | 0.0 | 0.00 | 0.00 | 0.00 | 99 | 1012.7 |
| 20260905075753 | 23 | 129 | 0.0 | 0.0 | 0.00 | 0.00 | 0.00 | 99 | 1012.6 |
| 20260905075252 | 23 | 129 | 0.0 | 0.0 | 0.00 | 0.00 | 0.00 | 99 | 1012.8 |
| 20260905074751 | 23 | 129 | 0.0 | 0.0 | 0.00 | 0.00 | 0.00 | 99 | 1012.8 |
| 20260905074248 | 23 | 129 | 0.0 | 0.0 | 0.00 | 0.00 | 0.00 | 99 | 1012.7 |
| 20260905073743 | 23 | 152 | 1.6 | 1.6 | 0.00 | 0.00 | 0.00 | 99 | 1012.9 |
| 20260905073238 | 23 | 162 | 1.6 | 1.6 | 0.00 | 0.00 | 0.00 | 99 | 1012.8 |
| 20260905072737 | 23 | 139 | 0.0 | 0.0 | 0.00 | 0.00 | 0.00 | 99 | 1012.9 |
| 20260905072233 | 23 | 141 | 0.0 | 0.0 | 0.00 | 0.00 | 0.00 | 99 | 1012.6 |
| 20260905071729 | 23 | 129 | 0.0 | 0.0 | 0.00 | 0.00 | 0.00 | 99 | 1013.0 |
| 20260905071225 | 23 | 129 | 0.0 | 0.0 | 0.00 | 0.00 | 0.00 | 99 | 1013.1 |
| 20260905070720 | 23 | 112 | 0.0 | 0.0 | 0.00 | 0.00 | 0.00 | 99 | 1012.8 |
| 20260905070216 | 24 | 112 | 0.0 | 0.0 | 0.00 | 0.00 | 0.00 | 99 | 1013.1 |
| 20260905065714 | 24 | 138 | 0.0 | 0.0 | 0.00 | 0.00 | 0.00 | 99 | 1013.0 |
| 20260905065209 | 24 | 142 | 0.0 | 0.0 | 0.00 | 0.00 | 0.00 | 99 | 1012.8 |
| 20260905064704 | 24 | 145 | 0.0 | 1.6 | 0.00 | 0.00 | 0.00 | 99 | 1013.0 |
| 20260905064200 | 24 | 129 | 0.0 | 0.0 | 0.00 | 0.00 | 0.00 | 99 | 1013.0 |
| 20260905063658 | 24 | 129 | 1.6 | 1.6 | 0.00 | 0.00 | 0.00 | 99 | 1013.0 |
| 20260905063155 | 24 | 129 | 0.0 | 0.0 | 0.00 | 0.00 | 0.00 | 99 | 1013.3 |
| 20260905062650 | 24 | 129 | 0.0 | 0.0 | 0.00 | 0.00 | 0.00 | 99 | 1013.3 |
| 20260905062149 | 24 | 130 | 0.0 | 0.0 | 0.00 | 0.00 | 0.00 | 99 | 1013.4 |
| 20260905061644 | 24 | 109 | 0.0 | 0.0 | 0.00 | 0.00 | 0.00 | 99 | 1013.4 |
| 20260905061143 | 24 | 139 | 0.0 | 0.0 | 0.00 | 0.00 | 0.00 | 99 | 1013.4 |
| 20260905060639 | 24 | 144 | 1.6 | 1.6 | 0.00 | 0.00 | 0.00 | 99 | 1013.3 |
| 20260905060136 | 24 | 137 | 0.0 | 0.0 | 0.00 | 0.00 | 0.00 | 99 | 1013.3 |
| 20260905055634 | 24 | 133 | 0.0 | 0.0 | 0.00 | 0.00 | 0.00 | 99 | 1013.2 |
| 20260905055129 | 24 | 133 | 0.0 | 0.0 | 0.00 | 0.00 | 0.00 | 99 | 1013.2 |
| 20260905054625 | 25 | 133 | 0.0 | 0.0 | 0.00 | 0.00 | 0.00 | 99 | 1013.3 |
| 20260905054120 | 25 | 133 | 0.0 | 0.0 | 0.00 | 0.00 | 0.00 | 99 | 1013.4 |
| 20260905053615 | 25 | 133 | 0.0 | 0.0 | 0.00 | 0.00 | 0.00 | 99 | 1013.3 |
| 20260905053110 | 25 | 133 | 0.0 | 0.0 | 0.00 | 0.00 | 0.00 | 99 | 1013.3 |
| 20260905052609 | 25 | 134 | 0.0 | 0.0 | 0.00 | 0.00 | 0.00 | 99 | 1013.3 |
| 20260905052104 | 25 | 173 | 0.0 | 0.0 | 0.00 | 0.00 | 0.00 | 99 | 1013.4 |
| 20260905051559 | 25 | 133 | 0.0 | 0.0 | 0.00 | 0.00 | 0.00 | 98 | 1013.2 |
| 20260905051055 | 25 | 165 | 0.0 | 0.0 | 0.00 | 0.00 | 0.00 | 98 | 1013.4 |
| 20260905050546 | 25 | 128 | 0.0 | 0.0 | 0.00 | 0.00 | 0.00 | 98 | 1013.3 |
| 20260905050042 | 25 | 127 | 0.0 | 0.0 | 0.00 | 0.00 | 0.00 | 98 | 1013.5 |
| 20260905045537 | 25 | 127 | 0.0 | 0.0 | 0.00 | 0.00 | 0.00 | 98 | 1013.4 |
| 20260905045032 | 25 | 127 | 0.0 | 0.0 | 0.00 | 0.00 | 0.00 | 98 | 1013.5 |
| 20260905044532 | 25 | 127 | 0.0 | 0.0 | 0.00 | 0.00 | 0.00 | 98 | 1013.5 |
| 20260905044032 | 25 | 144 | 0.0 | 0.0 | 0.00 | 0.00 | 0.00 | 98 | 1013.7 |
| 20260905043532 | 25 | 128 | 0.0 | 0.0 | 0.00 | 0.00 | 0.00 | 98 | 1013.4 |
| 20260905043027 | 25 | 94 | 0.0 | 1.6 | 0.00 | 0.00 | 0.00 | 97 | 1013.4 |
| 20260905042526 | 25 | 110 | 0.0 | 0.0 | 0.00 | 0.00 | 0.00 | 97 | 1013.4 |
| 20260905042021 | 25 | 112 | 0.0 | 0.0 | 0.00 | 0.00 | 0.00 | 97 | 1013.4 |
| 20260905041517 | 25 | 113 | 0.0 | 0.0 | 0.00 | 0.00 | 0.00 | 97 | 1013.5 |
| 20260905041012 | 25 | 113 | 0.0 | 0.0 | 0.00 | 0.00 | 0.00 | 97 | 1013.5 |
| 20260905040511 | 25 | 111 | 0.0 | 0.0 | 0.00 | 0.00 | 0.00 | 97 | 1013.3 |
| 20260905040010 | 25 | 87 | 1.6 | 1.6 | 0.00 | 0.00 | 0.00 | 97 | 1013.3 |
| 20260905035511 | 25 | 116 | 0.0 | 0.0 | 0.00 | 0.00 | 0.00 | 97 | 1013.5 |
| 20260905035009 | 25 | 128 | 0.0 | 0.0 | 0.00 | 0.00 | 0.00 | 97 | 1013.3 |
| 20260905034504 | 25 | 128 | 0.0 | 0.0 | 0.00 | 0.00 | 0.00 | 97 | 1013.6 |
| 20260905034003 | 25 | 128 | 0.0 | 0.0 | 0.00 | 0.00 | 0.00 | 97 | 1013.7 |
| 20260905033503 | 25 | 134 | 1.6 | 1.6 | 0.00 | 0.00 | 0.00 | 97 | 1013.5 |
| 20260905032958 | 25 | 123 | 0.0 | 0.0 | 0.00 | 0.00 | 0.00 | 96 | 1013.6 |
| 20260905032453 | 26 | 167 | 1.6 | 1.6 | 0.00 | 0.00 | 0.00 | 96 | 1013.5 |
| 20260905031948 | 26 | 134 | 0.0 | 0.0 | 0.00 | 0.00 | 0.00 | 96 | 1013.6 |
| 20260905031444 | 26 | 134 | 0.0 | 0.0 | 0.00 | 0.00 | 0.00 | 96 | 1013.7 |
| 20260905030939 | 26 | 134 | 0.0 | 0.0 | 0.00 | 0.00 | 0.00 | 95 | 1013.6 |
| 20260905030434 | 26 | 137 | 0.0 | 1.6 | 0.00 | 0.00 | 0.00 | 95 | 1013.6 |
| 20260905025933 | 26 | 147 | 1.6 | 1.6 | 0.00 | 0.00 | 0.00 | 95 | 1013.6 |
| 20260905025428 | 26 | 147 | 0.0 | 1.6 | 0.00 | 0.00 | 0.00 | 94 | 1013.5 |
| 20260905024925 | 26 | 130 | 0.0 | 0.0 | 0.00 | 0.00 | 0.00 | 94 | 1013.5 |
| 20260905024425 | 26 | 130 | 0.0 | 0.0 | 0.00 | 0.00 | 0.00 | 94 | 1013.5 |
| 20260905023921 | 26 | 135 | 0.0 | 0.0 | 0.00 | 0.00 | 0.00 | 94 | 1013.7 |
| 20260905023416 | 26 | 123 | 0.0 | 0.0 | 0.00 | 0.00 | 0.00 | 93 | 1013.4 |
| 20260905022915 | 26 | 123 | 0.0 | 0.0 | 0.00 | 0.00 | 0.00 | 93 | 1013.6 |
| 20260905022410 | 26 | 128 | 0.0 | 0.0 | 0.00 | 0.00 | 0.00 | 93 | 1013.7 |
| 20260905021905 | 26 | 144 | 1.6 | 1.6 | 0.00 | 0.00 | 0.00 | 93 | 1013.6 |
| 20260905021400 | 26 | 115 | 0.0 | 0.0 | 0.00 | 0.00 | 0.00 | 92 | 1013.5 |
| 20260905020855 | 26 | 115 | 0.0 | 0.0 | 0.00 | 0.00 | 0.00 | 91 | 1013.4 |
| 20260905020349 | 26 | 115 | 0.0 | 0.0 | 0.00 | 0.00 | 0.00 | 91 | 1013.3 |
| 20260905015850 | 26 | 115 | 0.0 | 0.0 | 0.00 | 0.00 | 0.00 | 91 | 1013.2 |
| 20260905015348 | 27 | 115 | 0.0 | 0.0 | 0.00 | 0.00 | 0.00 | 90 | 1013.4 |
| 20260905014848 | 27 | 115 | 0.0 | 0.0 | 0.00 | 0.00 | 0.00 | 91 | 1013.3 |
| 20260905014343 | 27 | 115 | 0.0 | 0.0 | 0.00 | 0.00 | 0.00 | 90 | 1013.2 |
| 20260905013838 | 27 | 114 | 0.0 | 0.0 | 0.00 | 0.00 | 0.00 | 90 | 1013.3 |
| 20260905013335 | 27 | 114 | 0.0 | 0.0 | 0.00 | 0.00 | 0.00 | 89 | 1013.3 |
| 20260905012835 | 27 | 114 | 0.0 | 0.0 | 0.00 | 0.00 | 0.00 | 89 | 1013.0 |
| 20260905012330 | 27 | 114 | 0.0 | 0.0 | 0.00 | 0.00 | 0.00 | 88 | 1013.1 |
| 20260905011827 | 27 | 114 | 0.0 | 0.0 | 0.00 | 0.00 | 0.00 | 88 | 1013.0 |
| 20260905011322 | 27 | 134 | 0.0 | 0.0 | 0.00 | 0.00 | 0.00 | 88 | 1013.1 |
| 20260905010817 | 27 | 135 | 0.0 | 0.0 | 0.00 | 0.00 | 0.00 | 88 | 1012.9 |
| 20260905010318 | 28 | 131 | 0.0 | 0.0 | 0.00 | 0.00 | 0.00 | 86 | 1012.9 |
| 20260905005814 | 28 | 131 | 0.0 | 0.0 | 0.00 | 0.00 | 0.00 | 86 | 1012.7 |
| 20260905005310 | 28 | 132 | 0.0 | 0.0 | 0.00 | 0.00 | 0.00 | 86 | 1012.8 |
| 20260905004810 | 28 | 131 | 0.0 | 0.0 | 0.00 | 0.00 | 0.00 | 85 | 1012.6 |
| 20260905004259 | 28 | 133 | 0.0 | 0.0 | 0.00 | 0.00 | 0.00 | 85 | 1012.9 |
| 20260905003754 | 28 | 129 | 0.0 | 0.0 | 0.00 | 0.00 | 0.00 | 84 | 1012.7 |
| 20260905003250 | 28 | 126 | 0.0 | 0.0 | 0.00 | 0.00 | 0.00 | 83 | 1012.7 |
| 20260905002745 | 29 | 128 | 0.0 | 0.0 | 0.00 | 0.00 | 0.00 | 82 | 1012.8 |
| 20260905002245 | 29 | 125 | 0.0 | 1.6 | 0.00 | 0.00 | 0.00 | 83 | 1012.6 |
| 20260905001741 | 30 | 125 | 0.0 | 0.0 | 0.00 | 0.00 | 0.00 | 82 | 1012.8 |
| 20260905001240 | 30 | 123 | 0.0 | 1.6 | 0.00 | 0.00 | 0.00 | 81 | 1012.7 |
| 20260905000735 | 30 | 122 | 0.0 | 0.0 | 0.00 | 0.00 | 0.00 | 81 | 1012.7 |
| 20260905000230 | 30 | 122 | 0.0 | 0.0 | 0.00 | 0.00 | 0.00 | 79 | 1012.9 |
| 20260904235726 | 30 | 122 | 0.0 | 0.0 | 0.00 | 0.00 | 0.00 | 78 | 1012.9 |
| 20260904235220 | 30 | 123 | 0.0 | 1.6 | 0.00 | 0.00 | 0.00 | 77 | 1012.9 |
| 20260904234715 | 31 | 125 | 0.0 | 0.0 | 0.00 | 0.00 | 0.00 | 75 | 1012.6 |
| 20260904234211 | 31 | 125 | 0.0 | 0.0 | 0.00 | 0.00 | 0.00 | 74 | 1012.8 |
| 20260904233706 | 31 | 125 | 0.0 | 0.0 | 0.00 | 0.00 | 0.00 | 75 | 1012.8 |
| 20260904233201 | 31 | 126 | 0.0 | 0.0 | 0.00 | 0.00 | 0.00 | 75 | 1012.6 |
| 20260904232658 | 31 | 119 | 0.0 | 1.6 | 0.00 | 0.00 | 0.00 | 74 | 1012.9 |
| 20260904232154 | 32 | 128 | 0.0 | 0.0 | 0.00 | 0.00 | 0.00 | 70 | 1012.6 |
| 20260904231649 | 32 | 132 | 0.0 | 0.0 | 0.00 | 0.00 | 0.00 | 70 | 1012.6 |
| 20260904231145 | 32 | 130 | 0.0 | 1.6 | 0.00 | 0.00 | 0.00 | 69 | 1012.8 |
| 20260904230644 | 33 | 131 | 1.6 | 3.2 | 0.00 | 0.00 | 0.00 | 67 | 1012.5 |
| 20260904230139 | 34 | 129 | 1.6 | 1.6 | 0.00 | 0.00 | 0.00 | 65 | 1012.6 |
| 20260904225637 | 35 | 133 | 3.2 | 3.2 | 0.00 | 0.00 | 0.00 | 60 | 1012.6 |
| 20260904225133 | 35 | 83 | 0.0 | 1.6 | 0.00 | 0.00 | 0.00 | 55 | 1012.6 |
| 20260904224627 | 36 | 137 | 1.6 | 1.6 | 0.00 | 0.00 | 0.00 | 57 | 1012.5 |
| 20260904224121 | 36 | 118 | 0.0 | 0.0 | 0.00 | 0.00 | 0.00 | 58 | 1012.7 |
| 20260904223621 | 36 | 138 | 1.6 | 3.2 | 0.00 | 0.00 | 0.00 | 55 | 1012.5 |
| 20260904223116 | 36 | 99 | 0.0 | 1.6 | 0.00 | 0.00 | 0.00 | 53 | 1012.4 |
| 20260904222613 | 37 | 121 | 3.2 | 4.8 | 0.00 | 0.00 | 0.00 | 52 | 1012.4 |
| 20260904222108 | 37 | 123 | 0.0 | 1.6 | 0.00 | 0.00 | 0.00 | 51 | 1012.7 |
| 20260904221602 | 37 | 131 | 1.6 | 3.2 | 0.00 | 0.00 | 0.00 | 51 | 1012.4 |
| 20260904221101 | 37 | 97 | 1.6 | 1.6 | 0.00 | 0.00 | 0.00 | 50 | 1012.5 |
| 20260904220556 | 37 | 103 | 0.0 | 1.6 | 0.00 | 0.00 | 0.00 | 50 | 1012.6 |
| 20260904220052 | 36 | 123 | 0.0 | 0.0 | 0.00 | 0.00 | 0.00 | 51 | 1012.6 |
| 20260904215551 | 36 | 7 | 3.2 | 4.8 | 0.00 | 0.00 | 0.00 | 52 | 1012.6 |
| 20260904215048 | 36 | 129 | 1.6 | 1.6 | 0.00 | 0.00 | 0.00 | 53 | 1012.8 |
| 20260904214543 | 36 | 16 | 8.0 | 9.7 | 0.00 | 0.00 | 0.00 | 51 | 1012.7 |
| 20260904214038 | 37 | 40 | 3.2 | 3.2 | 0.00 | 0.00 | 0.00 | 50 | 1012.7 |
| 20260904213536 | 37 | 98 | 3.2 | 4.8 | 0.00 | 0.00 | 0.00 | 51 | 1012.6 |
| 20260904213033 | 37 | 9 | 8.0 | 11.3 | 0.00 | 0.00 | 0.00 | 49 | 1012.5 |
| 20260904212532 | 37 | 42 | 11.3 | 16.1 | 0.00 | 0.00 | 0.00 | 47 | 1012.7 |
| 20260904212027 | 39 | 343 | 11.3 | 14.5 | 0.00 | 0.00 | 0.00 | 42 | 1012.7 |
| 20260904211521 | 40 | 12 | 3.2 | 3.2 | 0.00 | 0.00 | 0.00 | 41 | 1012.8 |
| 20260904211017 | 40 | 122 | 0.0 | 0.0 | 0.00 | 0.00 | 0.00 | 39 | 1012.8 |
| 20260904210516 | 40 | 203 | 3.2 | 4.8 | 0.00 | 0.00 | 0.00 | 39 | 1012.9 |
| 20260904210012 | 40 | 176 | 4.8 | 4.8 | 0.00 | 0.00 | 0.00 | 39 | 1012.7 |
| 20260904205507 | 38 | 114 | 0.0 | 0.0 | 0.00 | 0.00 | 0.00 | 41 | 1013.1 |